Location: Holyhead Bay
(53.3667°N, 4.6667°W)
Time: 22:28:04
(UTC+00:00)

Cosmos 1408 Rocket - Pass Details

Date: 19 April 2021
Orbit: 601 x 631 km, 82.6° (Epoch: 16 May)

Event Time Altitude Azimuth Distance (km) Brightness Sun altitude
Rises 23:53:33 0° 331° (NNW) 2,866 8.1 -24.9°
Reaches altitude 10° 23:57:39 10° 293° (WNW) 1,958 6.4 -25.0°
Maximum altitude 23:58:31 11° 281° (W) 1,921 6.2 -25.0°
Drops below altitude 10° 23:59:23 10° 269° (W) 1,957 6.2 -25.0°
Enters shadow 23:59:40 10° 266° (W) 1,983 6.1 -25.0°
